User: anonymous   Login
Location: Linz
(48.3300°N, 14.3000°E)
Time: 03:12:42
(UTC+02:00)
Language:

Envisat - Orbit

View from above orbital plane
View from above orbital plane
View from above satellite
View from above satellite

Ground track
Ground track

The orbit data is extracted from the following two-line orbital elements,

1 27386U 02009A   18174.59028785 -.00000010 +00000-0 +10366-4 0  9994
2 27386 098.1835 208.3496 0001256 094.6962 078.3850 14.37924420854378
Epoch (UTC): 23 June 2018 14:10:00
Eccentricity: 0.0001256
inclination: 98.1835°
perigee height: 764 km
apogee height: 766 km
right ascension of ascending node: 208.3496°
argument of perigee: 94.6962°
revolutions per day: 14.37924420
mean anomaly at epoch: 78.3850°
orbit number at epoch: 85437

The dashed part of the orbit path shows where the satellite is in the earth's shadow,  

DLR